Weather in Dillingen

Germany     49°21′10″N   6°43′31″E
temp.,
°C
wind,
m/s
gust,
m/s
humid.,
%
clouds,
%
prec.,
mm/h
press.,
hPa
HPBL,
m
16 april, fri
fri1623:00+3ne277174 0.0 1027281
02:00+1ne38727 0.0 1027228
05:00+1ne287381 0.0 1027269
08:00+2ne287786 0.0 1026450
11:00+5ne5659100 0.1 10261480
14:00+6ene4752100 0.1 10251590
17:00+7ene485699 0.0 10241345
20:00+6ne266395 0.0 1024671
17 april, sat
sat1723:00+3ne248223 0.0 1025133
02:00+2nne128970 0.0 102573
05:00+1nne228714 0.0 102449
08:00+2ne24785 0.0 1025140
11:00+8ne355423 0.0 10241226
14:00+11ne45355 0.0 10221761
17:00+11ne5653100 0.0 10211489
20:00+9ne2562100 0.0 1021610
18 april, sun
sun1823:00+7ene2769100 0.0 1022402
02:00+6ne2576100 0.0 1022473
05:00+6ne2482100 0.0 1021268
08:00+6ene358299 0.0 1022479
11:00+7ne3470100 0.0 10221031
14:00+10e3454100 0.1 10211559
17:00+10ne0257100 0.0 1020650
20:00+9wnw116696 0.0 102113
19 april, mon
mon1923:00+6nnw007787 0.0 102110
02:00+6n117897 0.0 102115
05:00+4nne118986 0.0 102010
08:00+6nne018596 0.1 102065
11:00+8ne017694 0.0 1019311
14:00+13nne115528 0.3 10181163
17:00+12ne226160 0.7 1016926
20:00+10ne117210 1.0 101610
20 april, tue
tue2023:00+7nne11865 0.2 101710
02:00+5ne11905 0.2 101610
05:00+4ne11915 0.0 101610
08:00+6ne00875 0.0 101550
11:00+12wnw00615 0.1 1014609
14:00+15nw114727 0.8 10121774
17:00+16w114167 0.5 10112052
20:00+12nne116113 0.6 101125